Time,TemperatureF,DewpointF,PressureIn,WindDirection,WindDirectionDegrees,WindSpeedMPH,WindSpeedGustMPH,Humidity,HourlyPrecipIn,Conditions,Clouds,dailyrainin,SolarRadiationWatts/m^2,SoftwareType,DateUTC
2013-08-21 00:01:00,66.0,58.9,30.09,North,360,2.7,5.0,78,0.00,BKN,,0.00,0.0,WeatherDisplay:10.37,2013-08-20 22:01:00,
2013-08-21 00:06:00,66.0,58.9,30.09,North,5,3.8,10.4,78,0.00,BKN,,0.00,0.0,WeatherDisplay:10.37,2013-08-20 22:06:00,
2013-08-21 00:11:00,65.9,58.8,30.10,NW,325,2.5,8.0,78,0.00,BKN,,0.00,0.0,WeatherDisplay:10.37,2013-08-20 22:11:00,
2013-08-21 00:16:00,65.9,58.8,30.10,NNW,332,1.3,9.2,78,0.00,BKN,,0.00,0.0,WeatherDisplay:10.37,2013-08-20 22:16:00,
2013-08-21 00:21:00,65.8,58.7,30.10,North,349,2.4,10.4,78,0.00,BKN,,0.00,0.0,WeatherDisplay:10.37,2013-08-20 22:21:00,
2013-08-21 00:26:00,65.8,58.7,30.10,NW,309,2.0,5.0,78,0.00,BKN,,0.00,0.0,WeatherDisplay:10.37,2013-08-20 22:26:00,
2013-08-21 00:31:00,65.7,58.7,30.10,North,355,4.5,10.4,78,0.00,BKN,,0.00,0.0,WeatherDisplay:10.37,2013-08-20 22:31:00,
2013-08-21 00:36:00,65.7,59.0,30.10,North,11,0.5,3.5,79,0.00,BKN,,0.00,0.0,WeatherDisplay:10.37,2013-08-20 22:36:00,
2013-08-21 00:41:00,65.7,59.0,30.10,NNW,340,1.5,4.6,79,0.00,BKN,,0.00,0.0,WeatherDisplay:10.37,2013-08-20 22:41:00,
2013-08-21 00:46:00,65.7,59.0,30.10,North,355,1.7,4.6,79,0.00,BKN,,0.00,0.0,WeatherDisplay:10.37,2013-08-20 22:46:00,
2013-08-21 00:51:00,65.7,59.0,30.10,North,11,3.2,7.0,79,0.00,BKN,,0.00,0.0,WeatherDisplay:10.37,2013-08-20 22:51:00,
2013-08-21 00:56:00,65.6,58.9,30.10,NNW,331,2.4,4.6,79,0.00,BKN,,0.00,0.0,WeatherDisplay:10.37,2013-08-20 22:56:00,
2013-08-21 01:01:00,65.6,58.9,30.09,NW,308,2.8,6.9,79,0.00,BKN,,0.00,0.0,WeatherDisplay:10.37,2013-08-20 23:01:00,
2013-08-21 01:06:00,65.6,58.9,30.09,NNW,338,1.1,3.5,79,0.00,BKN,,0.00,0.0,WeatherDisplay:10.37,2013-08-20 23:06:00,
2013-08-21 01:11:00,65.6,58.9,30.09,North,360,0.5,4.6,79,0.00,BKN,,0.00,0.0,WeatherDisplay:10.37,2013-08-20 23:11:00,
2013-08-21 01:16:00,65.5,58.8,30.10,NNW,335,3.1,8.1,79,0.00,BKN,,0.00,0.0,WeatherDisplay:10.37,2013-08-20 23:16:00,
2013-08-21 01:21:00,65.5,58.8,30.10,NW,325,1.9,3.5,79,0.00,BKN,,0.00,0.0,WeatherDisplay:10.37,2013-08-20 23:21:00,
2013-08-21 01:26:00,65.4,59.1,30.10,NW,319,2.4,5.0,80,0.00,BKN,,0.00,0.0,WeatherDisplay:10.37,2013-08-20 23:26:00,
2013-08-21 01:31:00,65.4,59.1,30.10,NW,323,1.5,3.5,80,0.00,BKN,,0.00,0.0,WeatherDisplay:10.37,2013-08-20 23:31:00,
2013-08-21 01:36:00,65.3,59.0,30.10,NW,320,0.2,4.6,80,0.00,BKN,,0.00,0.0,WeatherDisplay:10.37,2013-08-20 23:36:00,
2013-08-21 01:41:00,65.3,59.0,30.11,NW,319,0.5,3.5,80,0.00,BKN,,0.00,0.0,WeatherDisplay:10.37,2013-08-20 23:41:00,
2013-08-21 01:46:00,65.2,58.9,30.12,NW,319,0.4,2.3,80,0.00,BKN,,0.00,0.0,WeatherDisplay:10.37,2013-08-20 23:46:00,
2013-08-21 01:51:00,65.2,59.2,30.12,SW,225,1.3,3.5,81,0.02,RA,,0.02,0.0,WeatherDisplay:10.37,2013-08-20 23:51:00,
2013-08-21 01:56:00,65.2,59.6,30.12,SW,220,0.8,2.3,82,0.09,RA,,0.09,0.0,WeatherDisplay:10.37,2013-08-20 23:56:00,
2013-08-21 02:01:00,65.1,59.8,30.11,NW,306,0.5,2.3,83,0.17,RA,,0.17,0.0,WeatherDisplay:10.37,2013-08-21 00:01:00,
2013-08-21 02:06:00,64.7,59.4,30.11,ENE,62,0.5,2.3,83,0.24,RA,,0.24,0.0,WeatherDisplay:10.37,2013-08-21 00:06:00,
2013-08-21 02:11:00,64.3,59.4,30.11,ENE,59,0.2,2.3,84,0.30,RA,,0.30,0.0,WeatherDisplay:10.37,2013-08-21 00:11:00,
2013-08-21 02:16:00,64.0,59.7,30.10,North,5,3.1,5.0,86,0.35,RA,,0.35,0.0,WeatherDisplay:10.37,2013-08-21 00:16:00,
2013-08-21 02:21:00,63.6,59.3,30.10,ENE,59,3.1,5.0,86,0.36,RA,,0.36,0.0,WeatherDisplay:10.37,2013-08-21 00:21:00,
2013-08-21 02:26:00,63.3,59.4,30.10,North,11,2.7,5.8,87,0.37,RA,,0.37,0.0,WeatherDisplay:10.37,2013-08-21 00:26:00,
2013-08-21 02:31:00,63.1,59.5,30.10,North,5,2.8,8.1,88,0.37,RA,,0.37,0.0,WeatherDisplay:10.37,2013-08-21 00:31:00,
2013-08-21 02:36:00,62.8,59.2,30.10,North,360,4.0,6.0,88,0.38,RA,,0.38,0.0,WeatherDisplay:10.37,2013-08-21 00:36:00,
2013-08-21 02:41:00,62.7,59.4,30.10,NNE,17,4.3,7.0,89,0.38,RA,,0.38,0.0,WeatherDisplay:10.37,2013-08-21 00:41:00,
2013-08-21 02:46:00,62.5,59.2,30.10,NNE,21,2.8,5.8,89,0.38,BKN,,0.38,0.0,WeatherDisplay:10.37,2013-08-21 00:46:00,
2013-08-21 02:51:00,62.4,59.1,30.10,NE,36,0.1,2.3,89,0.36,BKN,,0.38,0.0,WeatherDisplay:10.37,2013-08-21 00:51:00,
2013-08-21 02:56:00,62.3,59.3,30.11,North,5,2.1,4.0,90,0.29,BKN,,0.38,0.0,WeatherDisplay:10.37,2013-08-21 00:56:00,
2013-08-21 03:01:00,62.2,59.2,30.10,North,5,1.6,3.5,90,0.20,BKN,,0.38,0.0,WeatherDisplay:10.37,2013-08-21 01:01:00,
2013-08-21 03:06:00,62.1,59.1,30.10,North,5,3.2,5.0,90,0.14,BKN,,0.38,0.0,WeatherDisplay:10.37,2013-08-21 01:06:00,
2013-08-21 03:11:00,62.1,59.1,30.10,North,355,0.6,5.8,90,0.08,BKN,,0.38,0.0,WeatherDisplay:10.37,2013-08-21 01:11:00,
2013-08-21 03:16:00,62.0,59.0,30.11,North,355,0.0,0.0,90,0.03,BKN,,0.38,0.0,WeatherDisplay:10.37,2013-08-21 01:16:00,
2013-08-21 03:21:00,61.9,59.2,30.11,North,355,0.0,0.0,91,0.02,BKN,,0.38,0.0,WeatherDisplay:10.37,2013-08-21 01:21:00,
2013-08-21 03:26:00,61.9,59.2,30.11,North,355,0.6,2.3,91,0.01,BKN,,0.38,0.0,WeatherDisplay:10.37,2013-08-21 01:26:00,
2013-08-21 03:31:00,61.8,59.1,30.10,NNE,20,0.6,5.0,91,0.01,BKN,,0.38,0.0,WeatherDisplay:10.37,2013-08-21 01:31:00,
2013-08-21 03:33:00,61.8,59.1,30.10,NNE,14,1.1,5.8,91,0.01,BKN,,0.38,0.0,WeatherDisplay:10.37,2013-08-21 01:33:00,
2013-08-21 03:38:00,61.7,59.0,30.11,North,5,3.0,4.6,91,0.00,BKN,,0.38,0.0,WeatherDisplay:10.37,2013-08-21 01:38:00,
2013-08-21 03:43:00,61.7,59.0,30.11,North,355,1.5,6.0,91,0.00,BKN,,0.38,0.0,WeatherDisplay:10.37,2013-08-21 01:43:00,
2013-08-21 03:48:00,61.6,58.9,30.10,North,360,2.8,6.9,91,0.00,BKN,,0.38,0.0,WeatherDisplay:10.37,2013-08-21 01:48:00,
2013-08-21 03:53:00,61.5,58.8,30.10,NNE,17,1.0,3.5,91,0.00,BKN,,0.38,0.0,WeatherDisplay:10.37,2013-08-21 01:53:00,
2013-08-21 03:58:00,61.5,58.8,30.11,North,9,1.0,4.6,91,0.00,BKN,,0.38,0.0,WeatherDisplay:10.37,2013-08-21 01:58:00,
2013-08-21 04:03:00,61.4,59.1,30.11,North,360,1.6,3.5,92,0.00,BKN,,0.38,0.0,WeatherDisplay:10.37,2013-08-21 02:03:00,
2013-08-21 04:08:00,61.4,59.1,30.10,North,355,2.7,4.6,92,0.00,BKN,,0.38,0.0,WeatherDisplay:10.37,2013-08-21 02:08:00,
2013-08-21 04:13:00,61.3,59.0,30.10,NNE,25,2.2,6.9,92,0.00,BKN,,0.38,0.0,WeatherDisplay:10.37,2013-08-21 02:13:00,
2013-08-21 04:18:00,61.3,59.0,30.10,NNW,343,2.3,5.8,92,0.00,BKN,,0.38,0.0,WeatherDisplay:10.37,2013-08-21 02:18:00,
2013-08-21 04:23:00,61.3,59.0,30.10,NNW,342,1.5,3.5,92,0.00,BKN,,0.38,0.0,WeatherDisplay:10.37,2013-08-21 02:23:00,
2013-08-21 04:28:00,61.2,58.9,30.10,NNW,342,1.9,5.0,92,0.00,BKN,,0.38,0.0,WeatherDisplay:10.37,2013-08-21 02:28:00,
2013-08-21 04:33:00,61.2,58.9,30.10,North,355,3.2,5.0,92,0.00,BKN,,0.38,0.0,WeatherDisplay:10.37,2013-08-21 02:33:00,
2013-08-21 04:38:00,61.1,58.8,30.10,NNE,19,0.4,2.3,92,0.00,BKN,,0.38,0.0,WeatherDisplay:10.37,2013-08-21 02:38:00,
2013-08-21 04:43:00,61.1,58.8,30.10,North,349,1.0,4.6,92,0.00,BKN,,0.38,0.0,WeatherDisplay:10.37,2013-08-21 02:43:00,
2013-08-21 04:48:00,61.1,58.8,30.10,North,355,1.5,3.5,92,0.00,BKN,,0.38,0.0,WeatherDisplay:10.37,2013-08-21 02:48:00,
2013-08-21 04:53:00,61.0,58.7,30.10,North,11,3.5,5.8,92,0.00,BKN,,0.38,0.0,WeatherDisplay:10.37,2013-08-21 02:53:00,
2013-08-21 04:58:00,61.0,58.7,30.10,NNW,338,0.0,3.5,92,0.00,BKN,,0.38,0.0,WeatherDisplay:10.37,2013-08-21 02:58:00,
2013-08-21 05:03:00,61.0,58.7,30.10,NNW,331,0.4,4.6,92,0.00,BKN,,0.38,0.0,WeatherDisplay:10.37,2013-08-21 03:03:00,
2013-08-21 05:08:00,60.9,58.6,30.11,NE,36,0.8,3.5,92,0.00,BKN,,0.38,0.0,WeatherDisplay:10.37,2013-08-21 03:08:00,
2013-08-21 05:13:00,60.9,58.6,30.11,NNE,28,0.2,2.3,92,0.00,BKN,,0.38,0.0,WeatherDisplay:10.37,2013-08-21 03:13:00,
2013-08-21 05:18:00,60.9,58.9,30.11,NNE,28,0.2,1.2,93,0.00,BKN,,0.38,0.0,WeatherDisplay:10.37,2013-08-21 03:18:00,
2013-08-21 05:23:00,60.8,58.8,30.11,NNE,30,0.3,1.2,93,0.00,BKN,,0.38,0.0,WeatherDisplay:10.37,2013-08-21 03:23:00,
2013-08-21 05:28:00,60.8,58.8,30.11,NNE,30,0.7,2.3,93,0.00,BKN,,0.38,0.0,WeatherDisplay:10.37,2013-08-21 03:28:00,
2013-08-21 05:33:00,60.8,58.8,30.11,NNE,30,0.4,2.3,93,0.00,BKN,,0.38,0.0,WeatherDisplay:10.37,2013-08-21 03:33:00,
2013-08-21 05:38:00,60.8,58.8,30.11,NNE,30,0.0,1.2,93,0.00,BKN,,0.38,0.0,WeatherDisplay:10.37,2013-08-21 03:38:00,
2013-08-21 05:43:00,60.7,58.7,30.11,NNE,29,1.0,3.5,93,0.00,BKN,,0.38,0.0,WeatherDisplay:10.37,2013-08-21 03:43:00,
2013-08-21 05:48:00,60.7,58.7,30.11,NNE,29,0.0,0.0,93,0.00,BKN,,0.38,0.0,WeatherDisplay:10.37,2013-08-21 03:48:00,
2013-08-21 05:53:00,60.7,58.7,30.11,NNE,26,0.2,3.5,93,0.00,BKN,,0.38,0.0,WeatherDisplay:10.37,2013-08-21 03:53:00,
2013-08-21 05:58:00,60.6,58.6,30.11,NNE,26,0.0,1.2,93,0.00,BKN,,0.38,5.0,WeatherDisplay:10.37,2013-08-21 03:58:00,
2013-08-21 06:01:00,60.6,58.6,30.11,NNW,333,0.1,1.2,93,0.00,BKN,,0.38,7.0,WeatherDisplay:10.37,2013-08-21 04:01:00,
2013-08-21 06:02:00,60.6,58.6,30.11,NNW,335,0.7,2.3,93,0.00,BKN,,0.38,7.0,WeatherDisplay:10.37,2013-08-21 04:02:00,
2013-08-21 06:03:00,60.6,58.6,30.11,NNW,335,0.5,2.3,93,0.00,BKN,,0.38,7.0,WeatherDisplay:10.37,2013-08-21 04:03:00,
2013-08-21 06:05:00,60.6,58.6,30.12,NNE,24,1.8,5.8,93,0.00,BKN,,0.38,9.0,WeatherDisplay:10.37,2013-08-21 04:05:00,
2013-08-21 06:10:00,60.7,58.7,30.12,NNE,13,1.1,4.0,93,0.00,BKN,,0.38,11.0,WeatherDisplay:10.37,2013-08-21 04:10:00,
2013-08-21 06:11:00,60.7,58.7,30.12,North,11,1.1,3.5,93,0.00,BKN,,0.38,12.0,WeatherDisplay:10.37,2013-08-21 04:11:00,
2013-08-21 06:16:00,60.7,58.7,30.12,North,11,0.3,2.3,93,0.00,BKN,,0.38,14.0,WeatherDisplay:10.37,2013-08-21 04:16:00,
2013-08-21 06:21:00,60.7,58.7,30.12,NNW,348,1.3,3.5,93,0.00,BKN,,0.38,16.0,WeatherDisplay:10.37,2013-08-21 04:21:00,
2013-08-21 06:26:00,60.7,58.7,30.12,NNE,13,0.1,2.3,93,0.00,BKN,,0.38,19.0,WeatherDisplay:10.37,2013-08-21 04:26:00,
2013-08-21 06:31:00,60.8,58.8,30.12,NNE,13,0.1,2.3,93,0.00,BKN,,0.38,23.0,WeatherDisplay:10.37,2013-08-21 04:31:00,
2013-08-21 06:36:00,60.8,58.8,30.12,NNE,13,0.0,1.2,93,0.00,BKN,,0.38,25.0,WeatherDisplay:10.37,2013-08-21 04:36:00,
2013-08-21 06:41:00,60.8,58.8,30.12,North,360,0.0,1.2,93,0.00,BKN,,0.38,28.0,WeatherDisplay:10.37,2013-08-21 04:41:00,
2013-08-21 06:46:00,60.8,58.8,30.12,NNW,338,0.2,2.0,93,0.00,BKN,,0.38,35.0,WeatherDisplay:10.37,2013-08-21 04:46:00,
2013-08-21 06:51:00,60.8,58.8,30.12,NNW,329,0.0,0.0,93,0.00,BKN,,0.38,42.0,WeatherDisplay:10.37,2013-08-21 04:51:00,
2013-08-21 06:56:00,60.8,58.8,30.13,NNW,329,0.0,0.0,93,0.00,BKN,,0.38,46.0,WeatherDisplay:10.37,2013-08-21 04:56:00,
2013-08-21 07:01:00,60.9,59.2,30.13,NNW,329,0.0,0.0,94,0.00,BKN,,0.38,49.0,WeatherDisplay:10.37,2013-08-21 05:01:00,
2013-08-21 07:06:00,60.9,59.2,30.13,NNW,329,0.0,0.0,94,0.00,BKN,,0.38,51.0,WeatherDisplay:10.37,2013-08-21 05:06:00,
2013-08-21 07:11:00,60.9,59.2,30.13,NNW,329,0.0,0.0,94,0.00,BKN,,0.38,56.0,WeatherDisplay:10.37,2013-08-21 05:11:00,
2013-08-21 07:16:00,61.0,59.3,30.13,NNW,329,0.0,1.2,94,0.00,BKN,,0.38,60.0,WeatherDisplay:10.37,2013-08-21 05:16:00,
2013-08-21 07:21:00,61.1,59.4,30.13,NNW,329,0.0,0.0,94,0.00,BKN,,0.38,63.0,WeatherDisplay:10.37,2013-08-21 05:21:00,
2013-08-21 07:26:00,61.2,59.5,30.13,NNW,329,0.1,1.2,94,0.00,BKN,,0.38,67.0,WeatherDisplay:10.37,2013-08-21 05:26:00,
2013-08-21 07:31:00,61.3,59.6,30.13,NNW,329,0.0,0.0,94,0.00,BKN,,0.38,72.0,WeatherDisplay:10.37,2013-08-21 05:31:00,
2013-08-21 07:36:00,61.3,59.6,30.13,NNW,329,0.0,0.0,94,0.00,BKN,,0.38,81.0,WeatherDisplay:10.37,2013-08-21 05:36:00,
2013-08-21 07:41:00,61.4,59.7,30.13,NNW,329,0.0,0.0,94,0.00,BKN,,0.38,93.0,WeatherDisplay:10.37,2013-08-21 05:41:00,
2013-08-21 07:46:00,61.5,59.8,30.13,North,5,0.0,1.2,94,0.00,BKN,,0.38,107.0,WeatherDisplay:10.37,2013-08-21 05:46:00,
2013-08-21 07:51:00,61.5,59.8,30.13,North,355,0.8,3.5,94,0.00,BKN,,0.38,118.0,WeatherDisplay:10.37,2013-08-21 05:51:00,
2013-08-21 07:56:00,61.7,60.0,30.13,NNW,335,1.1,4.0,94,0.00,SCT,,0.38,123.0,WeatherDisplay:10.37,2013-08-21 05:56:00,
2013-08-21 08:01:00,61.8,60.1,30.13,NNW,344,0.1,2.3,94,0.00,SCT,,0.38,128.0,WeatherDisplay:10.37,2013-08-21 06:01:00,
2013-08-21 08:06:00,61.9,60.2,30.13,WNW,300,1.8,6.0,94,0.00,SCT,,0.38,127.0,WeatherDisplay:10.37,2013-08-21 06:06:00,
2013-08-21 08:11:00,62.0,60.3,30.13,NW,311,3.2,5.8,94,0.00,BKN,,0.38,125.0,WeatherDisplay:10.37,2013-08-21 06:11:00,
2013-08-21 08:16:00,62.1,60.4,30.14,North,350,1.5,4.0,94,0.00,BKN,,0.38,123.0,WeatherDisplay:10.37,2013-08-21 06:16:00,
2013-08-21 08:21:00,62.2,60.5,30.14,NW,325,1.8,4.0,94,0.00,BKN,,0.38,128.0,WeatherDisplay:10.37,2013-08-21 06:21:00,
2013-08-21 08:26:00,62.4,60.3,30.14,NNW,336,0.1,1.2,93,0.00,BKN,,0.38,130.0,WeatherDisplay:10.37,2013-08-21 06:26:00,
2013-08-21 08:31:00,62.5,60.4,30.14,NNW,345,2.8,5.0,93,0.00,BKN,,0.38,127.0,WeatherDisplay:10.37,2013-08-21 06:31:00,
2013-08-21 08:36:00,62.7,60.6,30.14,NNW,337,0.8,3.5,93,0.00,BKN,,0.38,127.0,WeatherDisplay:10.37,2013-08-21 06:36:00,
2013-08-21 08:41:00,62.8,60.7,30.13,NNW,338,0.1,3.5,93,0.00,BKN,,0.38,130.0,WeatherDisplay:10.37,2013-08-21 06:41:00,
2013-08-21 08:46:00,63.0,60.9,30.14,NW,316,1.3,4.0,93,0.00,BKN,,0.38,132.0,WeatherDisplay:10.37,2013-08-21 06:46:00,
2013-08-21 08:51:00,63.2,61.1,30.13,North,5,1.4,4.0,93,0.00,BKN,,0.38,134.0,WeatherDisplay:10.37,2013-08-21 06:51:00,
2013-08-21 08:56:00,63.3,60.9,30.13,North,355,0.9,2.3,92,0.00,BKN,,0.38,135.0,WeatherDisplay:10.37,2013-08-21 06:56:00,
2013-08-21 09:01:00,63.5,61.1,30.13,North,350,2.0,4.0,92,0.00,BKN,,0.38,141.0,WeatherDisplay:10.37,2013-08-21 07:01:00,
2013-08-21 09:06:00,63.6,60.9,30.13,NNW,338,2.6,5.0,91,0.00,BKN,,0.38,141.0,WeatherDisplay:10.37,2013-08-21 07:06:00,
2013-08-21 09:11:00,63.7,61.0,30.13,NNW,335,0.2,3.5,91,0.00,BKN,,0.38,153.0,WeatherDisplay:10.37,2013-08-21 07:11:00,
2013-08-21 09:16:00,63.9,61.2,30.13,NW,326,2.3,5.8,91,0.00,BKN,,0.38,193.0,WeatherDisplay:10.37,2013-08-21 07:16:00,
2013-08-21 09:21:00,64.2,60.9,30.13,North,355,1.5,4.6,89,0.00,SCT,,0.38,306.0,WeatherDisplay:10.37,2013-08-21 07:21:00,
2013-08-21 09:26:00,64.8,61.5,30.13,North,360,0.6,4.6,89,0.00,SCT,,0.38,258.0,WeatherDisplay:10.37,2013-08-21 07:26:00,
2013-08-21 09:31:00,65.3,61.7,30.13,North,351,0.8,2.3,88,0.00,SCT,,0.38,227.0,WeatherDisplay:10.37,2013-08-21 07:31:00,
2013-08-21 09:36:00,65.7,61.7,30.13,North,10,2.4,4.0,87,0.00,SCT,,0.38,244.0,WeatherDisplay:10.37,2013-08-21 07:36:00,
2013-08-21 09:41:00,66.0,61.7,30.13,NNW,335,1.5,5.0,86,0.00,SCT,,0.38,325.0,WeatherDisplay:10.37,2013-08-21 07:41:00,
2013-08-21 09:46:00,66.4,61.8,30.13,North,355,3.2,6.9,85,0.00,SCT,,0.38,373.0,WeatherDisplay:10.37,2013-08-21 07:46:00,
2013-08-21 09:51:00,66.9,61.6,30.12,NNW,339,4.3,7.0,83,0.00,SCT,,0.38,383.0,WeatherDisplay:10.37,2013-08-21 07:51:00,
2013-08-21 09:56:00,67.3,62.0,30.12,North,360,5.1,7.0,83,0.00,SCT,,0.38,367.0,WeatherDisplay:10.37,2013-08-21 07:56:00,
2013-08-21 10:01:00,67.6,61.9,30.12,NNW,348,3.8,6.0,82,0.00,SCT,,0.38,362.0,WeatherDisplay:10.37,2013-08-21 08:01:00,
2013-08-21 10:06:00,67.8,62.1,30.12,NNW,330,1.6,5.0,82,0.00,SCT,,0.38,462.0,WeatherDisplay:10.37,2013-08-21 08:06:00,
2013-08-21 10:11:00,68.0,61.9,30.12,North,351,5.5,8.1,81,0.00,SCT,,0.38,313.0,WeatherDisplay:10.37,2013-08-21 08:11:00,
2013-08-21 10:16:00,68.0,61.9,30.12,NNW,344,4.6,11.5,81,0.00,SCT,,0.38,287.0,WeatherDisplay:10.37,2013-08-21 08:16:00,
2013-08-21 10:21:00,68.0,61.9,30.12,North,5,3.6,6.9,81,0.00,SCT,,0.38,278.0,WeatherDisplay:10.37,2013-08-21 08:21:00,
2013-08-21 10:26:00,68.2,62.1,30.12,NNW,332,3.9,7.0,81,0.00,SCT,,0.38,322.0,WeatherDisplay:10.37,2013-08-21 08:26:00,
2013-08-21 10:31:00,68.3,61.9,30.12,North,360,3.4,6.9,80,0.00,SCT,,0.38,350.0,WeatherDisplay:10.37,2013-08-21 08:31:00,
2013-08-21 10:36:00,68.5,61.7,30.12,NNE,13,3.5,9.2,79,0.00,SCT,,0.38,376.0,WeatherDisplay:10.37,2013-08-21 08:36:00,
2013-08-21 10:41:00,68.7,61.9,30.12,North,360,4.9,7.0,79,0.00,SCT,,0.38,367.0,WeatherDisplay:10.37,2013-08-21 08:41:00,
2013-08-21 10:46:00,68.8,62.0,30.12,NNE,28,3.3,8.1,79,0.00,SCT,,0.38,308.0,WeatherDisplay:10.37,2013-08-21 08:46:00,
2013-08-21 10:51:00,68.9,62.1,30.12,North,350,1.5,5.8,79,0.00,SCT,,0.38,315.0,WeatherDisplay:10.37,2013-08-21 08:51:00,
2013-08-21 10:56:00,69.3,62.5,30.12,NNE,20,2.2,5.8,79,0.00,SCT,,0.38,329.0,WeatherDisplay:10.37,2013-08-21 08:56:00,
2013-08-21 11:01:00,69.5,62.7,30.12,NNE,22,1.7,4.6,79,0.00,SCT,,0.38,311.0,WeatherDisplay:10.37,2013-08-21 09:01:00,
2013-08-21 11:06:00,69.8,62.6,30.12,NNE,13,2.8,4.6,78,0.00,SCT,,0.38,348.0,WeatherDisplay:10.37,2013-08-21 09:06:00,
2013-08-21 11:11:00,70.1,62.9,30.12,NNW,346,2.6,5.0,78,0.00,SCT,,0.38,408.0,WeatherDisplay:10.37,2013-08-21 09:11:00,
2013-08-21 11:16:00,70.5,62.9,30.12,NNW,331,1.0,5.0,77,0.00,SCT,,0.38,483.0,WeatherDisplay:10.37,2013-08-21 09:16:00,
2013-08-21 11:22:00,70.8,62.5,30.12,NNW,340,2.1,4.6,75,0.00,SCT,,0.38,612.0,WeatherDisplay:10.37,2013-08-21 09:22:00,
2013-08-21 11:27:00,70.9,62.6,30.12,NNW,340,1.0,2.3,75,0.00,FEW,,0.38,592.0,WeatherDisplay:10.37,2013-08-21 09:27:00,
2013-08-21 11:33:00,71.3,63.0,30.13,NW,317,1.2,3.5,75,0.00,FEW,,0.38,485.0,WeatherDisplay:10.37,2013-08-21 09:33:00,
2013-08-21 11:38:00,71.5,63.2,30.13,NW,316,0.6,3.5,75,0.00,SCT,,0.38,427.0,WeatherDisplay:10.37,2013-08-21 09:38:00,
2013-08-21 11:43:00,71.8,63.1,30.13,WNW,286,1.9,5.8,74,0.00,SCT,,0.38,519.0,WeatherDisplay:10.37,2013-08-21 09:43:00,
2013-08-21 11:48:00,72.1,63.7,30.13,West,275,0.6,2.3,75,0.00,SCT,,0.38,459.0,WeatherDisplay:10.37,2013-08-21 09:48:00,
2013-08-21 11:53:00,72.5,63.7,30.13,NNW,337,2.7,5.0,74,0.00,SCT,,0.38,494.0,WeatherDisplay:10.37,2013-08-21 09:53:00,
2013-08-21 11:58:00,72.6,63.1,30.13,North,5,1.2,3.5,72,0.00,SCT,,0.38,462.0,WeatherDisplay:10.37,2013-08-21 09:58:00,
2013-08-21 12:03:00,72.5,63.0,30.12,North,5,0.3,2.3,72,0.00,SCT,,0.38,455.0,WeatherDisplay:10.37,2013-08-21 10:03:00,
2013-08-21 12:08:00,72.7,63.5,30.12,NE,40,2.2,4.0,73,0.00,SCT,,0.38,411.0,WeatherDisplay:10.37,2013-08-21 10:08:00,
2013-08-21 12:13:00,72.9,63.7,30.12,ENE,59,0.2,2.3,73,0.00,SCT,,0.38,461.0,WeatherDisplay:10.37,2013-08-21 10:13:00,
2013-08-21 12:18:00,73.0,63.0,30.12,NW,319,2.9,4.0,71,0.00,SCT,,0.38,394.0,WeatherDisplay:10.37,2013-08-21 10:18:00,
2013-08-21 12:23:00,73.2,63.2,30.12,NW,323,0.5,3.0,71,0.00,SCT,,0.38,446.0,WeatherDisplay:10.37,2013-08-21 10:23:00,
2013-08-21 12:28:00,73.6,62.8,30.12,North,360,2.7,4.0,69,0.00,SCT,,0.38,380.0,WeatherDisplay:10.37,2013-08-21 10:28:00,
2013-08-21 12:33:00,73.6,62.8,30.12,NNW,342,1.1,5.8,69,0.00,SCT,,0.38,418.0,WeatherDisplay:10.37,2013-08-21 10:33:00,
2013-08-21 12:38:00,73.7,62.1,30.12,NNE,15,1.8,3.5,67,0.00,SCT,,0.38,371.0,WeatherDisplay:10.37,2013-08-21 10:38:00,
2013-08-21 12:43:00,73.8,62.2,30.13,NNE,25,1.1,3.5,67,0.00,SCT,,0.38,371.0,WeatherDisplay:10.37,2013-08-21 10:43:00,
2013-08-21 12:48:00,73.8,63.0,30.12,NNE,25,0.0,0.0,69,0.00,SCT,,0.38,360.0,WeatherDisplay:10.37,2013-08-21 10:48:00,
2013-08-21 12:53:00,73.8,61.7,30.12,NNE,26,2.2,4.0,66,0.00,SCT,,0.38,332.0,WeatherDisplay:10.37,2013-08-21 10:53:00,
2013-08-21 12:58:00,73.9,62.2,30.12,North,355,1.1,5.0,67,0.00,BKN,,0.38,345.0,WeatherDisplay:10.37,2013-08-21 10:58:00,
2013-08-21 13:03:00,74.0,61.9,30.12,NNE,12,0.8,3.5,66,0.00,BKN,,0.38,360.0,WeatherDisplay:10.37,2013-08-21 11:03:00,
2013-08-21 13:08:00,74.1,62.4,30.12,North,5,3.7,5.0,67,0.00,SCT,,0.38,388.0,WeatherDisplay:10.37,2013-08-21 11:08:00,
2013-08-21 13:13:00,74.3,62.6,30.12,NE,34,0.0,2.3,67,0.00,SCT,,0.38,475.0,WeatherDisplay:10.37,2013-08-21 11:13:00,
2013-08-21 13:18:00,74.4,61.9,30.12,North,5,1.2,3.5,65,0.00,SCT,,0.38,438.0,WeatherDisplay:10.37,2013-08-21 11:18:00,
2013-08-21 13:23:00,74.6,62.5,30.12,NE,46,1.6,4.0,66,0.00,SCT,,0.38,452.0,WeatherDisplay:10.37,2013-08-21 11:23:00,
2013-08-21 13:28:00,74.8,62.2,30.12,NNW,339,1.5,3.5,65,0.00,SCT,,0.38,480.0,WeatherDisplay:10.37,2013-08-21 11:28:00,
2013-08-21 13:33:00,74.8,62.7,30.12,ENE,59,0.2,2.0,66,0.00,SCT,,0.38,538.0,WeatherDisplay:10.37,2013-08-21 11:33:00,
2013-08-21 13:38:00,75.1,62.5,30.12,NNW,333,0.7,2.3,65,0.00,SCT,,0.38,490.0,WeatherDisplay:10.37,2013-08-21 11:38:00,
2013-08-21 13:43:00,75.1,63.0,30.12,West,259,1.2,2.3,66,0.00,SCT,,0.38,374.0,WeatherDisplay:10.37,2013-08-21 11:43:00,
2013-08-21 13:48:00,75.1,64.2,30.12,South,177,0.1,2.3,69,0.00,SCT,,0.38,329.0,WeatherDisplay:10.37,2013-08-21 11:48:00,
2013-08-21 13:53:00,75.0,62.9,30.12,South,177,0.4,2.3,66,0.00,BKN,,0.38,308.0,WeatherDisplay:10.37,2013-08-21 11:53:00,
2013-08-21 13:58:00,75.1,63.0,30.12,SW,236,0.1,3.5,66,0.00,BKN,,0.38,241.0,WeatherDisplay:10.37,2013-08-21 11:58:00,
2013-08-21 14:03:00,75.1,62.5,30.11,North,355,2.0,3.5,65,0.00,BKN,,0.38,213.0,WeatherDisplay:10.37,2013-08-21 12:03:00,
2013-08-21 14:08:00,75.0,62.4,30.12,NNE,25,0.7,2.3,65,0.00,BKN,,0.38,209.0,WeatherDisplay:10.37,2013-08-21 12:08:00,
2013-08-21 14:13:00,74.9,62.8,30.11,WNW,288,1.6,4.6,66,0.00,BKN,,0.38,265.0,WeatherDisplay:10.37,2013-08-21 12:13:00,
2013-08-21 14:18:00,74.9,62.3,30.11,NNW,331,1.6,4.6,65,0.00,BKN,,0.38,209.0,WeatherDisplay:10.37,2013-08-21 12:18:00,
2013-08-21 14:23:00,74.9,62.8,30.11,NNW,329,0.9,3.5,66,0.00,BKN,,0.38,153.0,WeatherDisplay:10.37,2013-08-21 12:23:00,
2013-08-21 14:28:00,74.9,62.3,30.11,NNW,331,1.8,4.6,65,0.00,BKN,,0.38,118.0,WeatherDisplay:10.37,2013-08-21 12:28:00,
2013-08-21 14:33:00,74.7,62.1,30.11,NNW,331,0.6,3.5,65,0.00,BKN,,0.38,105.0,WeatherDisplay:10.37,2013-08-21 12:33:00,
2013-08-21 14:38:00,74.6,62.5,30.12,NNW,331,1.4,4.6,66,0.00,BKN,,0.38,105.0,WeatherDisplay:10.37,2013-08-21 12:38:00,
2013-08-21 14:43:00,74.5,63.2,30.12,NNW,331,1.4,3.0,68,0.00,BKN,,0.38,111.0,WeatherDisplay:10.37,2013-08-21 12:43:00,
2013-08-21 14:48:00,74.3,63.9,30.11,NNW,331,0.6,2.3,70,0.00,BKN,,0.38,125.0,WeatherDisplay:10.37,2013-08-21 12:48:00,
2013-08-21 14:53:00,74.2,63.4,30.11,NNW,331,0.0,0.0,69,0.00,BKN,,0.38,135.0,WeatherDisplay:10.37,2013-08-21 12:53:00,
2013-08-21 14:58:00,74.0,62.8,30.11,NNW,331,0.2,1.2,68,0.00,BKN,,0.38,179.0,WeatherDisplay:10.37,2013-08-21 12:58:00,
2013-08-21 15:03:00,74.1,63.3,30.11,NNW,331,0.5,2.0,69,0.00,BKN,,0.38,216.0,WeatherDisplay:10.37,2013-08-21 13:03:00,
2013-08-21 15:08:00,74.3,64.3,30.11,NNW,331,0.0,0.0,71,0.00,BKN,,0.38,214.0,WeatherDisplay:10.37,2013-08-21 13:08:00,
2013-08-21 15:13:00,74.4,62.7,30.11,NNW,331,0.0,0.0,67,0.00,BKN,,0.38,239.0,WeatherDisplay:10.37,2013-08-21 13:13:00,
2013-08-21 15:18:00,74.5,62.0,30.11,NNW,331,0.5,2.3,65,0.00,BKN,,0.38,369.0,WeatherDisplay:10.37,2013-08-21 13:18:00,
2013-08-21 15:23:00,74.8,62.2,30.11,NNW,331,0.2,2.3,65,0.00,SCT,,0.38,446.0,WeatherDisplay:10.37,2013-08-21 13:23:00,
2013-08-21 15:28:00,75.2,62.2,30.10,WSW,238,2.2,4.6,64,0.00,FEW,,0.38,504.0,WeatherDisplay:10.37,2013-08-21 13:28:00,
2013-08-21 15:33:00,75.8,62.3,30.10,NNW,334,0.7,3.5,63,0.00,CLR,,0.38,631.0,WeatherDisplay:10.37,2013-08-21 13:33:00,
2013-08-21 15:38:00,75.9,63.3,30.10,WSW,244,4.3,6.0,65,0.00,CLR,,0.38,378.0,WeatherDisplay:10.37,2013-08-21 13:38:00,
2013-08-21 15:43:00,76.0,62.5,30.10,WSW,240,1.2,3.5,63,0.00,FEW,,0.38,294.0,WeatherDisplay:10.37,2013-08-21 13:43:00,
2013-08-21 15:48:00,76.1,65.2,30.10,WSW,243,0.0,2.3,69,0.00,SCT,,0.38,218.0,WeatherDisplay:10.37,2013-08-21 13:48:00,
2013-08-21 15:53:00,76.1,63.0,30.10,WSW,243,1.2,2.3,64,0.00,BKN,,0.38,236.0,WeatherDisplay:10.37,2013-08-21 13:53:00,
2013-08-21 15:58:00,76.1,63.5,30.10,WSW,244,0.1,1.2,65,0.00,BKN,,0.38,265.0,WeatherDisplay:10.37,2013-08-21 13:58:00,
2013-08-21 16:03:00,76.1,62.1,30.10,WSW,244,0.0,1.0,62,0.00,SCT,,0.38,195.0,WeatherDisplay:10.37,2013-08-21 14:03:00,
2013-08-21 16:08:00,75.9,62.8,30.10,West,265,1.8,5.0,64,0.00,BKN,,0.38,174.0,WeatherDisplay:10.37,2013-08-21 14:08:00,
2013-08-21 16:13:00,75.9,64.6,30.10,SW,221,2.2,3.5,68,0.00,BKN,,0.38,181.0,WeatherDisplay:10.37,2013-08-21 14:13:00,
2013-08-21 16:18:00,75.6,63.4,30.10,WSW,240,1.9,4.0,66,0.00,BKN,,0.38,206.0,WeatherDisplay:10.37,2013-08-21 14:18:00,
2013-08-21 16:23:00,75.6,63.4,30.10,WSW,244,0.8,5.8,66,0.00,BKN,,0.38,186.0,WeatherDisplay:10.37,2013-08-21 14:23:00,
2013-08-21 16:28:00,75.5,62.5,30.10,WNW,282,0.9,4.0,64,0.00,BKN,,0.38,153.0,WeatherDisplay:10.37,2013-08-21 14:28:00,
2013-08-21 16:33:00,75.6,63.0,30.10,West,267,0.4,5.8,65,0.00,BKN,,0.38,148.0,WeatherDisplay:10.37,2013-08-21 14:33:00,
2013-08-21 16:38:00,75.6,63.9,30.10,WSW,252,0.1,3.5,67,0.00,BKN,,0.38,116.0,WeatherDisplay:10.37,2013-08-21 14:38:00,
2013-08-21 16:43:00,75.4,63.7,30.10,WSW,251,1.4,5.0,67,0.00,BKN,,0.38,114.0,WeatherDisplay:10.37,2013-08-21 14:43:00,
2013-08-21 16:48:00,75.2,63.9,30.10,WSW,252,0.0,1.2,68,0.00,BKN,,0.38,114.0,WeatherDisplay:10.37,2013-08-21 14:48:00,
2013-08-21 16:53:00,75.1,63.8,30.09,WSW,251,0.2,3.5,68,0.00,BKN,,0.38,121.0,WeatherDisplay:10.37,2013-08-21 14:53:00,
2013-08-21 16:58:00,75.0,63.7,30.09,WNW,289,1.7,5.8,68,0.00,BKN,,0.38,128.0,WeatherDisplay:10.37,2013-08-21 14:58:00,
2013-08-21 17:03:00,74.9,61.9,30.09,WNW,289,0.0,1.2,64,0.00,BKN,,0.38,144.0,WeatherDisplay:10.37,2013-08-21 15:03:00,
2013-08-21 17:08:00,75.0,62.9,30.09,WNW,289,0.4,1.2,66,0.00,BKN,,0.38,155.0,WeatherDisplay:10.37,2013-08-21 15:08:00,
2013-08-21 17:13:00,75.2,63.9,30.09,WNW,289,1.1,3.5,68,0.00,SCT,,0.38,160.0,WeatherDisplay:10.37,2013-08-21 15:13:00,
2013-08-21 17:18:00,75.2,62.6,30.09,WNW,289,0.4,2.0,65,0.00,SCT,,0.38,174.0,WeatherDisplay:10.37,2013-08-21 15:18:00,
2013-08-21 17:23:00,75.3,62.3,30.09,WNW,289,0.0,1.2,64,0.00,SCT,,0.38,165.0,WeatherDisplay:10.37,2013-08-21 15:23:00,
2013-08-21 17:28:00,75.6,62.6,30.09,NW,315,2.6,4.0,64,0.00,SCT,,0.38,167.0,WeatherDisplay:10.37,2013-08-21 15:28:00,
2013-08-21 17:33:00,75.6,62.1,30.09,NW,317,1.1,2.3,63,0.00,SCT,,0.38,151.0,WeatherDisplay:10.37,2013-08-21 15:33:00,
2013-08-21 17:38:00,75.6,61.7,30.09,NNW,331,0.6,3.5,62,0.00,SCT,,0.38,142.0,WeatherDisplay:10.37,2013-08-21 15:38:00,
2013-08-21 17:43:00,75.5,61.6,30.09,NNW,331,0.8,3.5,62,0.00,SCT,,0.38,139.0,WeatherDisplay:10.37,2013-08-21 15:43:00,
2013-08-21 17:48:00,75.5,61.1,30.09,NNW,331,0.0,1.2,61,0.00,SCT,,0.38,130.0,WeatherDisplay:10.37,2013-08-21 15:48:00,
2013-08-21 17:53:00,75.6,63.0,30.09,NNW,331,0.0,1.2,65,0.00,SCT,,0.38,121.0,WeatherDisplay:10.37,2013-08-21 15:53:00,
2013-08-21 17:58:00,75.5,62.0,30.09,NNW,331,0.0,0.0,63,0.00,SCT,,0.38,125.0,WeatherDisplay:10.37,2013-08-21 15:58:00,
2013-08-21 18:03:00,75.5,61.6,30.09,NNW,331,0.6,2.3,62,0.00,SCT,,0.38,128.0,WeatherDisplay:10.37,2013-08-21 16:03:00,
2013-08-21 18:08:00,75.6,63.4,30.09,NNW,331,0.2,1.0,66,0.00,SCT,,0.38,135.0,WeatherDisplay:10.37,2013-08-21 16:08:00,
2013-08-21 18:13:00,75.5,62.0,30.09,NNW,331,0.0,0.0,63,0.00,SCT,,0.38,127.0,WeatherDisplay:10.37,2013-08-21 16:13:00,
2013-08-21 18:18:00,75.4,62.4,30.09,NNW,331,0.0,0.0,64,0.00,SCT,,0.38,104.0,WeatherDisplay:10.37,2013-08-21 16:18:00,
2013-08-21 18:23:00,75.3,62.3,30.09,NNW,331,0.2,2.3,64,0.00,SCT,,0.38,81.0,WeatherDisplay:10.37,2013-08-21 16:23:00,
2013-08-21 18:28:00,75.2,62.2,30.09,NNW,331,0.3,2.0,64,0.00,SCT,,0.38,70.0,WeatherDisplay:10.37,2013-08-21 16:28:00,
2013-08-21 18:33:00,75.2,61.7,30.09,NNW,331,0.0,1.2,63,0.00,SCT,,0.38,69.0,WeatherDisplay:10.37,2013-08-21 16:33:00,
2013-08-21 18:38:00,75.1,62.1,30.09,NNW,331,0.1,1.2,64,0.00,SCT,,0.38,60.0,WeatherDisplay:10.37,2013-08-21 16:38:00,
2013-08-21 18:43:00,75.1,62.1,30.09,NNW,331,0.0,0.0,64,0.00,SCT,,0.38,51.0,WeatherDisplay:10.37,2013-08-21 16:43:00,
2013-08-21 18:48:00,75.0,62.0,30.09,NNW,331,0.0,1.0,64,0.00,BKN,,0.38,44.0,WeatherDisplay:10.37,2013-08-21 16:48:00,
2013-08-21 18:53:00,74.9,61.9,30.09,NNW,331,0.0,1.2,64,0.00,BKN,,0.38,37.0,WeatherDisplay:10.37,2013-08-21 16:53:00,
2013-08-21 18:58:00,74.9,61.5,30.09,NNW,331,0.5,2.3,63,0.00,BKN,,0.38,28.0,WeatherDisplay:10.37,2013-08-21 16:58:00,
2013-08-21 19:03:00,74.8,61.8,30.09,NNW,331,0.0,1.2,64,0.00,BKN,,0.38,21.0,WeatherDisplay:10.37,2013-08-21 17:03:00,
2013-08-21 19:08:00,74.7,61.7,30.09,NNW,331,0.0,1.2,64,0.00,BKN,,0.38,14.0,WeatherDisplay:10.37,2013-08-21 17:08:00,
2013-08-21 19:13:00,74.5,62.0,30.09,NNW,331,0.0,0.0,65,0.00,BKN,,0.38,11.0,WeatherDisplay:10.37,2013-08-21 17:13:00,
2013-08-21 19:18:00,74.4,62.3,30.09,NNW,331,0.0,0.0,66,0.00,BKN,,0.38,7.0,WeatherDisplay:10.37,2013-08-21 17:18:00,
2013-08-21 19:23:00,74.3,62.6,30.09,NNW,331,0.0,0.0,67,0.00,BKN,,0.38,7.0,WeatherDisplay:10.37,2013-08-21 17:23:00,
2013-08-21 19:28:00,74.1,62.9,30.08,NNW,331,0.0,0.0,68,0.00,BKN,,0.38,7.0,WeatherDisplay:10.37,2013-08-21 17:28:00,
2013-08-21 19:33:00,74.0,63.2,30.09,NNW,331,0.0,0.0,69,0.00,BKN,,0.38,5.0,WeatherDisplay:10.37,2013-08-21 17:33:00,
2013-08-21 19:38:00,73.7,63.3,30.09,NNW,331,0.0,0.0,70,0.00,BKN,,0.38,0.0,WeatherDisplay:10.37,2013-08-21 17:38:00,
2013-08-21 19:43:00,73.4,63.0,30.08,NNW,331,0.0,0.0,70,0.00,BKN,,0.38,0.0,WeatherDisplay:10.37,2013-08-21 17:43:00,
2013-08-21 19:48:00,73.1,63.1,30.08,NNW,331,0.0,0.0,71,0.00,BKN,,0.38,0.0,WeatherDisplay:10.37,2013-08-21 17:48:00,
2013-08-21 19:53:00,72.8,62.8,30.09,NNW,331,0.0,0.0,71,0.00,BKN,,0.38,0.0,WeatherDisplay:10.37,2013-08-21 17:53:00,
2013-08-21 19:58:00,72.5,63.0,30.08,NNW,331,0.0,0.0,72,0.00,BKN,,0.38,0.0,WeatherDisplay:10.37,2013-08-21 17:58:00,
2013-08-21 20:03:00,72.2,62.7,30.08,NNW,331,0.0,0.0,72,0.00,BKN,,0.38,0.0,WeatherDisplay:10.37,2013-08-21 18:03:00,
2013-08-21 20:08:00,71.9,62.8,30.08,NNW,331,0.0,0.0,73,0.00,BKN,,0.38,0.0,WeatherDisplay:10.37,2013-08-21 18:08:00,
2013-08-21 20:14:00,71.6,62.9,30.08,NNW,331,0.0,0.0,74,0.00,BKN,,0.38,0.0,WeatherDisplay:10.37,2013-08-21 18:14:00,
2013-08-21 20:19:00,71.3,63.0,30.08,NNW,331,0.0,0.0,75,0.00,BKN,,0.38,0.0,WeatherDisplay:10.37,2013-08-21 18:19:00,
2013-08-21 20:24:00,71.1,63.1,30.09,NNW,331,0.0,0.0,76,0.00,BKN,,0.38,0.0,WeatherDisplay:10.37,2013-08-21 18:24:00,
2013-08-21 20:29:00,70.8,62.9,30.08,NNW,331,0.0,0.0,76,0.00,BKN,,0.38,0.0,WeatherDisplay:10.37,2013-08-21 18:29:00,
2013-08-21 20:34:00,70.5,62.9,30.09,NNW,331,0.0,0.0,77,0.00,BKN,,0.38,0.0,WeatherDisplay:10.37,2013-08-21 18:34:00,
2013-08-21 20:39:00,70.3,63.1,30.09,NNW,331,0.4,2.3,78,0.00,BKN,,0.38,0.0,WeatherDisplay:10.37,2013-08-21 18:39:00,
2013-08-21 20:44:00,70.1,62.9,30.09,WNW,297,0.3,1.2,78,0.00,BKN,,0.38,0.0,WeatherDisplay:10.37,2013-08-21 18:44:00,
2013-08-21 20:49:00,69.9,62.0,30.09,NW,307,0.6,3.5,76,0.00,BKN,,0.38,0.0,WeatherDisplay:10.37,2013-08-21 18:49:00,
2013-08-21 20:54:00,69.8,60.8,30.09,NNW,331,0.5,2.3,73,0.00,BKN,,0.38,0.0,WeatherDisplay:10.37,2013-08-21 18:54:00,
2013-08-21 20:59:00,69.8,60.4,30.09,NNW,328,0.9,2.3,72,0.00,BKN,,0.38,0.0,WeatherDisplay:10.37,2013-08-21 18:59:00,
2013-08-21 21:04:00,69.9,59.7,30.09,NNE,13,2.5,5.8,70,0.00,BKN,,0.38,0.0,WeatherDisplay:10.37,2013-08-21 19:04:00,
2013-08-21 21:09:00,69.9,59.3,30.09,NNE,19,1.6,4.6,69,0.00,BKN,,0.38,0.0,WeatherDisplay:10.37,2013-08-21 19:09:00,
2013-08-21 21:14:00,69.9,59.3,30.09,North,9,0.2,1.0,69,0.00,BKN,,0.38,0.0,WeatherDisplay:10.37,2013-08-21 19:14:00,
2013-08-21 21:19:00,69.9,59.3,30.09,North,9,0.3,1.0,69,0.00,BKN,,0.38,0.0,WeatherDisplay:10.37,2013-08-21 19:19:00,
2013-08-21 21:24:00,69.8,59.2,30.09,North,9,0.0,1.2,69,0.00,BKN,,0.38,0.0,WeatherDisplay:10.37,2013-08-21 19:24:00,
2013-08-21 21:29:00,69.7,59.1,30.09,North,9,0.0,0.0,69,0.00,BKN,,0.38,0.0,WeatherDisplay:10.37,2013-08-21 19:29:00,
2013-08-21 21:34:00,69.5,58.9,30.09,North,9,0.0,0.0,69,0.00,BKN,,0.38,0.0,WeatherDisplay:10.37,2013-08-21 19:34:00,
2013-08-21 21:39:00,69.3,58.7,30.09,North,9,0.0,0.0,69,0.00,BKN,,0.38,0.0,WeatherDisplay:10.37,2013-08-21 19:39:00,
2013-08-21 21:44:00,69.0,58.4,30.09,North,9,0.1,1.2,69,0.00,BKN,,0.38,0.0,WeatherDisplay:10.37,2013-08-21 19:44:00,
2013-08-21 21:49:00,68.7,58.5,30.09,North,9,0.0,0.0,70,0.00,BKN,,0.38,0.0,WeatherDisplay:10.37,2013-08-21 19:49:00,
2013-08-21 21:54:00,68.5,58.7,30.09,North,9,0.0,0.0,71,0.00,BKN,,0.38,0.0,WeatherDisplay:10.37,2013-08-21 19:54:00,
2013-08-21 21:59:00,68.3,58.9,30.09,North,9,0.0,0.0,72,0.00,BKN,,0.38,0.0,WeatherDisplay:10.37,2013-08-21 19:59:00,
2013-08-21 22:04:00,68.0,59.4,30.09,North,9,0.0,0.0,74,0.00,BKN,,0.38,0.0,WeatherDisplay:10.37,2013-08-21 20:04:00,
2013-08-21 22:09:00,67.7,59.1,30.09,North,9,0.0,0.0,74,0.00,BKN,,0.38,0.0,WeatherDisplay:10.37,2013-08-21 20:09:00,
2013-08-21 22:14:00,67.4,58.8,30.09,North,9,0.0,0.0,74,0.00,BKN,,0.38,0.0,WeatherDisplay:10.37,2013-08-21 20:14:00,
2013-08-21 22:19:00,67.0,58.4,30.09,North,9,0.0,0.0,74,0.00,BKN,,0.38,0.0,WeatherDisplay:10.37,2013-08-21 20:19:00,
2013-08-21 22:24:00,66.7,58.5,30.09,North,9,0.0,0.0,75,0.00,BKN,,0.38,0.0,WeatherDisplay:10.37,2013-08-21 20:24:00,
2013-08-21 22:29:00,66.4,58.2,30.10,North,9,0.0,0.0,75,0.00,BKN,,0.38,0.0,WeatherDisplay:10.37,2013-08-21 20:29:00,
2013-08-21 22:34:00,66.2,58.4,30.10,North,9,0.0,0.0,76,0.00,BKN,,0.38,0.0,WeatherDisplay:10.37,2013-08-21 20:34:00,
2013-08-21 22:39:00,66.0,58.2,30.10,North,9,0.0,0.0,76,0.00,BKN,,0.38,0.0,WeatherDisplay:10.37,2013-08-21 20:39:00,
2013-08-21 22:45:00,66.0,58.2,30.10,North,9,0.0,0.0,76,0.00,BKN,,0.38,0.0,WeatherDisplay:10.37,2013-08-21 20:45:00,
2013-08-21 22:50:00,65.9,58.1,30.10,North,9,0.0,0.0,76,0.00,BKN,,0.38,0.0,WeatherDisplay:10.37,2013-08-21 20:50:00,
2013-08-21 22:55:00,66.0,58.6,30.10,North,9,0.0,0.0,77,0.00,BKN,,0.38,0.0,WeatherDisplay:10.37,2013-08-21 20:55:00,
2013-08-21 23:00:00,66.0,58.6,30.10,North,9,0.0,0.0,77,0.00,BKN,,0.38,0.0,WeatherDisplay:10.37,2013-08-21 21:00:00,
2013-08-21 23:05:00,66.0,58.6,30.10,North,9,0.0,0.0,77,0.00,BKN,,0.38,0.0,WeatherDisplay:10.37,2013-08-21 21:05:00,
2013-08-21 23:10:00,65.9,58.5,30.10,North,9,0.0,0.0,77,0.00,BKN,,0.38,0.0,WeatherDisplay:10.37,2013-08-21 21:10:00,
2013-08-21 23:15:00,65.9,58.8,30.10,North,9,0.0,0.0,78,0.00,BKN,,0.38,0.0,WeatherDisplay:10.37,2013-08-21 21:15:00,
2013-08-21 23:20:00,65.7,58.3,30.10,North,9,0.0,0.0,77,0.00,BKN,,0.38,0.0,WeatherDisplay:10.37,2013-08-21 21:20:00,
2013-08-21 23:25:00,65.7,58.3,30.10,North,9,0.0,0.0,77,0.00,BKN,,0.38,0.0,WeatherDisplay:10.37,2013-08-21 21:25:00,
2013-08-21 23:30:00,65.6,58.2,30.10,North,9,0.0,0.0,77,0.00,BKN,,0.38,0.0,WeatherDisplay:10.37,2013-08-21 21:30:00,
2013-08-21 23:35:00,65.7,58.3,30.10,North,9,0.0,0.0,77,0.00,BKN,,0.38,0.0,WeatherDisplay:10.37,2013-08-21 21:35:00,
2013-08-21 23:40:00,65.7,58.3,30.10,North,9,0.0,0.0,77,0.00,BKN,,0.38,0.0,WeatherDisplay:10.37,2013-08-21 21:40:00,
2013-08-21 23:45:00,65.6,58.2,30.10,North,9,0.1,1.2,77,0.00,BKN,,0.38,0.0,WeatherDisplay:10.37,2013-08-21 21:45:00,
2013-08-21 23:50:00,65.6,58.6,30.10,SSE,165,0.9,3.0,78,0.00,BKN,,0.38,0.0,WeatherDisplay:10.37,2013-08-21 21:50:00,
2013-08-21 23:55:00,65.6,58.6,30.10,South,187,0.3,1.2,78,0.00,BKN,,0.38,0.0,WeatherDisplay:10.37,2013-08-21 21:55:00,